,,,PA_Meas_PMT16A,,PR_Meas_QMR101_102,,RH_Meas_QMH101,,SR_Meas_QMS101,,TA_Meas_QMH101,,GenWind,,GenWind,
date,time,status,PA,status,PR,status,RH,status,SR,status,TA,status,DirAvg,status,SpdAvg,
2010-12-15, 00:00:04,VALID,1007.62,VALID,0,VALID,103.939,VALID,0,VALID,24.6489,VALID,77,VALID,0,
2010-12-15, 00:01:04,VALID,1007.6,VALID,0,VALID,103.947,VALID,0,VALID,24.6294,VALID,78,VALID,0,
2010-12-15, 00:02:04,VALID,1007.59,VALID,0,VALID,103.962,VALID,0,VALID,24.6294,VALID,78,VALID,0,
2010-12-15, 00:03:04,VALID,1007.58,VALID,0,VALID,103.962,VALID,0,VALID,24.5886,VALID,78,VALID,0,
2010-12-15, 00:04:04,VALID,1007.56,VALID,0,VALID,103.962,VALID,0,VALID,24.6099,VALID,77,VALID,0.139062,
2010-12-15, 00:05:04,VALID,1007.54,VALID,0,VALID,103.954,VALID,0,VALID,24.6099,VALID,78,VALID,0.0328125,
2010-12-15, 00:06:04,VALID,1007.52,VALID,0,VALID,103.962,VALID,0,VALID,24.5905,VALID,78,VALID,0,
2010-12-15, 00:07:04,VALID,1007.53,VALID,0,VALID,103.97,VALID,0,VALID,24.5905,VALID,78,VALID,0,
2010-12-15, 00:08:04,VALID,1007.5,VALID,0,VALID,103.977,VALID,0,VALID,24.5923,VALID,78,VALID,0,
2010-12-15, 00:09:04,VALID,1007.53,VALID,0,VALID,103.97,VALID,0,VALID,24.571,VALID,78,VALID,0,
2010-12-15, 00:10:04,VALID,1007.52,VALID,0,VALID,103.97,VALID,0.105969,VALID,24.5496,VALID,77,VALID,0,
2010-12-15, 00:11:04,VALID,1007.56,VALID,0,VALID,103.962,VALID,0.105969,VALID,24.5496,VALID,78,VALID,0,
2010-12-15, 00:12:04,VALID,1007.57,VALID,0,VALID,103.97,VALID,0,VALID,24.5496,VALID,78,VALID,0.268359,
2010-12-15, 00:13:04,VALID,1007.57,VALID,0,VALID,103.97,VALID,0.105969,VALID,24.5301,VALID,78,VALID,0,
2010-12-15, 00:14:04,VALID,1007.56,VALID,0,VALID,103.962,VALID,0.105969,VALID,24.5301,VALID,78,VALID,0,
2010-12-15, 00:15:04,VALID,1007.57,VALID,0,VALID,103.954,VALID,0.105969,VALID,24.5496,VALID,78,VALID,0,
2010-12-15, 00:16:04,VALID,1007.59,VALID,0,VALID,103.947,VALID,0,VALID,24.5301,VALID,77,VALID,0,
2010-12-15, 00:17:04,VALID,1007.54,VALID,0,VALID,103.947,VALID,0.105969,VALID,24.5301,VALID,78,VALID,0,
2010-12-15, 00:18:04,VALID,1007.55,VALID,0,VALID,103.962,VALID,0,VALID,24.5106,VALID,78,VALID,0,
2010-12-15, 00:19:04,VALID,1007.55,VALID,0,VALID,103.97,VALID,0.105969,VALID,24.5106,VALID,77,VALID,0,
2010-12-15, 00:20:04,VALID,1007.53,VALID,0,VALID,103.954,VALID,0.105969,VALID,24.5301,VALID,78,VALID,0,
2010-12-15, 00:21:04,VALID,1007.56,VALID,0,VALID,103.954,VALID,0.105969,VALID,24.5301,VALID,78,VALID,0,
2010-12-15, 00:22:04,VALID,1007.54,VALID,0,VALID,103.947,VALID,0.105969,VALID,24.5088,VALID,78,VALID,0,
2010-12-15, 00:23:04,VALID,1007.52,VALID,0,VALID,103.962,VALID,0.105969,VALID,24.5106,VALID,78,VALID,0,
2010-12-15, 00:24:04,VALID,1007.49,VALID,0,VALID,103.97,VALID,0.105969,VALID,24.5106,VALID,78,VALID,0,
2010-12-15, 00:25:04,VALID,1007.46,VALID,0,VALID,103.954,VALID,0,VALID,24.5106,VALID,78,VALID,0,
2010-12-15, 00:26:04,VALID,1007.45,VALID,0,VALID,103.939,VALID,0.105969,VALID,24.5301,VALID,77,VALID,0.318359,
2010-12-15, 00:27:04,VALID,1007.44,VALID,0,VALID,103.947,VALID,0.105969,VALID,24.4893,VALID,78,VALID,0.266406,
2010-12-15, 00:28:04,VALID,1007.41,VALID,0,VALID,103.947,VALID,0,VALID,24.5301,VALID,77,VALID,0.337891,
2010-12-15, 00:29:04,VALID,1007.39,VALID,0,VALID,103.931,VALID,0.105969,VALID,24.5515,VALID,77,VALID,0,
2010-12-15, 00:30:04,VALID,1007.39,VALID,0,VALID,103.931,VALID,0.105969,VALID,24.5088,VALID,78,VALID,0.219141,
2010-12-15, 00:31:04,VALID,1007.38,VALID,0,VALID,103.954,VALID,0.105969,VALID,24.5301,VALID,78,VALID,0,
2010-12-15, 00:32:04,VALID,1007.39,VALID,0,VALID,103.954,VALID,0.105969,VALID,24.5088,VALID,78,VALID,0,
2010-12-15, 00:33:04,VALID,1007.35,VALID,0,VALID,103.939,VALID,0.105969,VALID,24.5301,VALID,77,VALID,0.186719,
2010-12-15, 00:34:04,VALID,1007.34,VALID,0,VALID,103.947,VALID,0,VALID,24.5106,VALID,77,VALID,0,
2010-12-15, 00:35:04,VALID,1007.37,VALID,0,VALID,103.954,VALID,0.105969,VALID,24.5106,VALID,78,VALID,0,
2010-12-15, 00:36:04,VALID,1007.35,VALID,0,VALID,103.931,VALID,0.105969,VALID,24.5106,VALID,77,VALID,0,
2010-12-15, 00:37:04,VALID,1007.32,VALID,0,VALID,103.947,VALID,0.105969,VALID,24.5106,VALID,77,VALID,0,
2010-12-15, 00:38:04,VALID,1007.31,VALID,0,VALID,103.916,VALID,0.105969,VALID,24.5106,VALID,77,VALID,0,
2010-12-15, 00:39:04,VALID,1007.32,VALID,0,VALID,103.924,VALID,0.105969,VALID,24.4911,VALID,78,VALID,0,
2010-12-15, 00:40:04,VALID,1007.28,VALID,0,VALID,103.931,VALID,0,VALID,24.493,VALID,78,VALID,0,
2010-12-15, 00:41:04,VALID,1007.25,VALID,0,VALID,103.931,VALID,0,VALID,24.493,VALID,77,VALID,0,
2010-12-15, 00:42:04,VALID,1007.22,VALID,0,VALID,103.931,VALID,0,VALID,24.493,VALID,77,VALID,0,
2010-12-15, 00:43:04,VALID,1007.24,VALID,0,VALID,103.916,VALID,0,VALID,24.493,VALID,78,VALID,0,
2010-12-15, 00:44:04,VALID,1007.21,VALID,0,VALID,103.931,VALID,0,VALID,24.493,VALID,78,VALID,0,
2010-12-15, 00:45:04,VALID,1007.19,VALID,0,VALID,103.931,VALID,0,VALID,24.493,VALID,78,VALID,0,
2010-12-15, 00:46:04,VALID,1007.18,VALID,0,VALID,103.931,VALID,0,VALID,24.493,VALID,78,VALID,0,
2010-12-15, 00:47:04,VALID,1007.17,VALID,0,VALID,103.924,VALID,0,VALID,24.493,VALID,78,VALID,0.0140625,
2010-12-15, 00:48:04,VALID,1007.17,VALID,0,VALID,103.931,VALID,0,VALID,24.493,VALID,77,VALID,0,
2010-12-15, 00:49:04,VALID,1007.17,VALID,0,VALID,103.931,VALID,0,VALID,24.4717,VALID,77,VALID,0,
2010-12-15, 00:50:04,VALID,1007.15,VALID,0,VALID,103.947,VALID,0,VALID,24.5144,VALID,78,VALID,0,
2010-12-15, 00:51:04,VALID,1007.12,VALID,0,VALID,103.954,VALID,0,VALID,24.493,VALID,78,VALID,0,
2010-12-15, 00:52:04,VALID,1007.11,VALID,0,VALID,103.954,VALID,0,VALID,24.493,VALID,77,VALID,0,
2010-12-15, 00:53:04,VALID,1007.08,VALID,0,VALID,103.947,VALID,0,VALID,24.4735,VALID,77,VALID,0,
2010-12-15, 00:54:04,VALID,1007.07,VALID,0,VALID,103.97,VALID,0,VALID,24.4735,VALID,77,VALID,0,
2010-12-15, 00:55:04,VALID,1007.05,VALID,0,VALID,103.962,VALID,0,VALID,24.493,VALID,77,VALID,0.239063,
2010-12-15, 00:56:04,VALID,1007.05,VALID,0,VALID,103.977,VALID,0,VALID,24.4717,VALID,77,VALID,0.0140625,
2010-12-15, 00:57:04,VALID,1007.01,VALID,0,VALID,103.97,VALID,0,VALID,24.4949,VALID,77,VALID,0,
2010-12-15, 00:58:04,VALID,1007.02,VALID,0,VALID,103.962,VALID,0,VALID,24.4735,VALID,77,VALID,0,
2010-12-15, 00:59:04,VALID,1006.98,VALID,0,VALID,103.97,VALID,0,VALID,24.4735,VALID,77,VALID,0,
2010-12-15, 01:00:04,VALID,1006.96,VALID,0,VALID,103.985,VALID,0,VALID,24.4735,VALID,77,VALID,0,
2010-12-15, 01:01:04,VALID,1006.94,VALID,0,VALID,103.985,VALID,0,VALID,24.4522,VALID,77,VALID,0,
2010-12-15, 01:02:04,VALID,1006.92,VALID,0,VALID,103.985,VALID,0,VALID,24.4735,VALID,77,VALID,0,
2010-12-15, 01:03:04,VALID,1006.88,VALID,0,VALID,103.985,VALID,0,VALID,24.4735,VALID,77,VALID,0,
2010-12-15, 01:04:04,VALID,1006.85,VALID,0,VALID,103.985,VALID,0,VALID,24.454,VALID,77,VALID,0,
2010-12-15, 01:05:04,VALID,1006.84,VALID,0,VALID,104,VALID,0,VALID,24.454,VALID,77,VALID,0,
2010-12-15, 01:06:04,VALID,1006.87,VALID,0,VALID,104,VALID,0,VALID,24.454,VALID,77,VALID,0,
2010-12-15, 01:07:04,VALID,1006.86,VALID,0,VALID,104,VALID,0,VALID,24.4327,VALID,77,VALID,0,
2010-12-15, 01:08:04,VALID,1006.85,VALID,0,VALID,104,VALID,0,VALID,24.454,VALID,77,VALID,0,
2010-12-15, 01:09:04,VALID,1006.85,VALID,0,VALID,103.992,VALID,0,VALID,24.454,VALID,77,VALID,0,
2010-12-15, 01:10:04,VALID,1006.84,VALID,0,VALID,104,VALID,0.105969,VALID,24.4522,VALID,77,VALID,0,
2010-12-15, 01:11:04,VALID,1006.82,VALID,0,VALID,103.992,VALID,0,VALID,24.4522,VALID,77,VALID,0,
2010-12-15, 01:12:04,VALID,1006.84,VALID,0,VALID,104,VALID,0.105969,VALID,24.4735,VALID,77,VALID,0,
2010-12-15, 01:13:04,VALID,1006.85,VALID,0,VALID,104,VALID,0.105969,VALID,24.4522,VALID,78,VALID,0.00585938,
2010-12-15, 01:14:04,VALID,1006.83,VALID,0,VALID,104,VALID,0.105969,VALID,24.4522,VALID,77,VALID,0.143359,
2010-12-15, 01:15:04,VALID,1006.84,VALID,0,VALID,104,VALID,0.105969,VALID,24.4717,VALID,77,VALID,0.00351562,
2010-12-15, 01:16:04,VALID,1006.84,VALID,0,VALID,104,VALID,0.105969,VALID,24.4717,VALID,77,VALID,0,
2010-12-15, 01:17:04,VALID,1006.85,VALID,0,VALID,104,VALID,0.105969,VALID,24.4522,VALID,78,VALID,0,
2010-12-15, 01:18:04,VALID,1006.86,VALID,0,VALID,104,VALID,0.105969,VALID,24.4522,VALID,77,VALID,0.353516,
2010-12-15, 01:19:04,VALID,1006.88,VALID,0,VALID,104,VALID,0.105969,VALID,24.4522,VALID,78,VALID,0.21875,
2010-12-15, 01:20:04,VALID,1006.9,VALID,0,VALID,104,VALID,0.105969,VALID,24.4717,VALID,78,VALID,0.258203,
2010-12-15, 01:21:04,VALID,1006.87,VALID,0,VALID,104,VALID,0.105969,VALID,24.4522,VALID,77,VALID,0.0738281,
2010-12-15, 01:22:04,VALID,1006.88,VALID,0,VALID,104,VALID,0.105969,VALID,24.4522,VALID,78,VALID,0.389062,
2010-12-15, 01:23:04,VALID,1006.88,VALID,0,VALID,104,VALID,0.105969,VALID,24.4717,VALID,89,VALID,0.416406,
2010-12-15, 01:24:04,VALID,1006.9,VALID,0,VALID,104,VALID,0.105969,VALID,24.4503,VALID,65,VALID,0.101172,
2010-12-15, 01:25:04,VALID,1006.87,VALID,0,VALID,104,VALID,0,VALID,24.454,VALID,65,VALID,0.0148437,
2010-12-15, 01:26:04,VALID,1006.89,VALID,0,VALID,104,VALID,0,VALID,24.4754,VALID,65,VALID,0.0046875,
2010-12-15, 01:27:04,VALID,1006.88,VALID,0,VALID,104,VALID,0,VALID,24.454,VALID,65,VALID,0.107031,
2010-12-15, 01:28:04,VALID,1006.88,VALID,0,VALID,104,VALID,0,VALID,24.454,VALID,65,VALID,0,
2010-12-15, 01:29:04,VALID,1006.86,VALID,0,VALID,104,VALID,0,VALID,24.4559,VALID,64,VALID,0.00351562,
2010-12-15, 01:30:04,VALID,1006.82,VALID,0,VALID,104,VALID,0.105969,VALID,24.454,VALID,56,VALID,0.135937,
2010-12-15, 01:31:04,VALID,1006.85,VALID,0,VALID,104,VALID,0,VALID,24.4345,VALID,56,VALID,0,
2010-12-15, 01:32:04,VALID,1006.81,VALID,0,VALID,104,VALID,0,VALID,24.454,VALID,56,VALID,0,
2010-12-15, 01:33:04,VALID,1006.82,VALID,0,VALID,104,VALID,0,VALID,24.4345,VALID,56,VALID,0.167578,
2010-12-15, 01:34:04,VALID,1006.81,VALID,0,VALID,104,VALID,0,VALID,24.4345,VALID,63,VALID,0.164844,
2010-12-15, 01:35:04,VALID,1006.83,VALID,0,VALID,103.985,VALID,0,VALID,24.4345,VALID,62,VALID,0.251563,
2010-12-15, 01:36:04,VALID,1006.82,VALID,0,VALID,104,VALID,0,VALID,24.415,VALID,59,VALID,0.15,
2010-12-15, 01:37:04,VALID,1006.81,VALID,0,VALID,103.985,VALID,0,VALID,24.415,VALID,59,VALID,0.00117188,
2010-12-15, 01:38:04,VALID,1006.81,VALID,0,VALID,103.985,VALID,0,VALID,24.415,VALID,59,VALID,0,
2010-12-15, 01:39:04,VALID,1006.81,VALID,0,VALID,103.977,VALID,0,VALID,24.415,VALID,59,VALID,0,
2010-12-15, 01:40:04,VALID,1006.79,VALID,0,VALID,103.977,VALID,0,VALID,24.415,VALID,59,VALID,0,
2010-12-15, 01:41:04,VALID,1006.77,VALID,0,VALID,103.985,VALID,0,VALID,24.415,VALID,59,VALID,0,
2010-12-15, 01:42:04,VALID,1006.77,VALID,0,VALID,103.977,VALID,0,VALID,24.3956,VALID,59,VALID,0,
2010-12-15, 01:43:04,VALID,1006.74,VALID,0,VALID,103.962,VALID,0,VALID,24.3956,VALID,59,VALID,0,
2010-12-15, 01:44:04,VALID,1006.69,VALID,0,VALID,103.992,VALID,0.105969,VALID,24.4169,VALID,89,VALID,0.366797,
2010-12-15, 01:45:04,VALID,1006.7,VALID,0,VALID,103.977,VALID,0,VALID,24.3761,VALID,89,VALID,0.200781,
2010-12-15, 01:46:04,VALID,1006.69,VALID,0,VALID,103.977,VALID,0,VALID,24.3761,VALID,89,VALID,0.078125,
2010-12-15, 01:47:04,VALID,1006.65,VALID,0,VALID,103.985,VALID,0,VALID,24.3761,VALID,83,VALID,0.0503906,
2010-12-15, 01:48:04,VALID,1006.62,VALID,0,VALID,103.977,VALID,0,VALID,24.3761,VALID,79,VALID,0.439453,
2010-12-15, 01:49:04,VALID,1006.63,VALID,0,VALID,103.962,VALID,0,VALID,24.3761,VALID,77,VALID,0.0949219,
2010-12-15, 01:50:04,VALID,1006.58,VALID,0,VALID,103.977,VALID,0,VALID,24.3956,VALID,77,VALID,0,
2010-12-15, 01:51:04,VALID,1006.54,VALID,0,VALID,103.962,VALID,0,VALID,24.3974,VALID,77,VALID,0,
2010-12-15, 01:52:04,VALID,1006.51,VALID,0,VALID,103.97,VALID,0,VALID,24.3566,VALID,77,VALID,0.333594,
2010-12-15, 01:53:04,VALID,1006.48,VALID,0,VALID,103.954,VALID,0,VALID,24.3761,VALID,78,VALID,0.530469,
2010-12-15, 01:54:04,VALID,1006.45,VALID,0,VALID,103.962,VALID,0,VALID,24.3974,VALID,78,VALID,0.298047,
2010-12-15, 01:55:04,VALID,1006.43,VALID,0,VALID,103.962,VALID,0,VALID,24.3761,VALID,78,VALID,0.369531,
2010-12-15, 01:56:04,VALID,1006.41,VALID,0,VALID,103.954,VALID,0,VALID,24.3761,VALID,78,VALID,0.135547,
2010-12-15, 01:57:04,VALID,1006.36,VALID,0,VALID,103.954,VALID,0,VALID,24.3761,VALID,78,VALID,0,
2010-12-15, 01:58:04,VALID,1006.37,VALID,0,VALID,103.939,VALID,0,VALID,24.3761,VALID,78,VALID,0.133594,
2010-12-15, 01:59:04,VALID,1006.35,VALID,0,VALID,103.931,VALID,0,VALID,24.3761,VALID,78,VALID,0,
2010-12-15, 02:00:04,VALID,1006.37,VALID,0,VALID,103.939,VALID,0,VALID,24.3779,VALID,78,VALID,0,
2010-12-15, 02:01:04,VALID,1006.32,VALID,0,VALID,103.916,VALID,0,VALID,24.3566,VALID,78,VALID,0,
2010-12-15, 02:02:04,VALID,1006.33,VALID,0,VALID,103.924,VALID,0,VALID,24.3371,VALID,78,VALID,0,
2010-12-15, 02:03:04,VALID,1006.34,VALID,0,VALID,103.931,VALID,0,VALID,24.3566,VALID,78,VALID,0,
2010-12-15, 02:04:04,VALID,1006.33,VALID,0,VALID,103.931,VALID,0,VALID,24.3371,VALID,78,VALID,0,
2010-12-15, 02:05:04,VALID,1006.31,VALID,0,VALID,103.924,VALID,0,VALID,24.3371,VALID,78,VALID,0,
2010-12-15, 02:06:04,VALID,1006.34,VALID,0,VALID,103.931,VALID,0,VALID,24.3176,VALID,78,VALID,0,
2010-12-15, 02:07:04,VALID,1006.36,VALID,0,VALID,103.939,VALID,0.105969,VALID,24.3352,VALID,78,VALID,0,
2010-12-15, 02:08:04,VALID,1006.35,VALID,0,VALID,103.947,VALID,0.105969,VALID,24.3352,VALID,78,VALID,0,
2010-12-15, 02:09:04,VALID,1006.31,VALID,0,VALID,103.909,VALID,0,VALID,24.3158,VALID,78,VALID,0,
2010-12-15, 02:10:04,VALID,1006.34,VALID,0,VALID,103.939,VALID,0.105969,VALID,24.3158,VALID,78,VALID,0,
2010-12-15, 02:11:04,VALID,1006.31,VALID,0,VALID,103.931,VALID,0.105969,VALID,24.3158,VALID,78,VALID,0.194531,
2010-12-15, 02:12:04,VALID,1006.33,VALID,0,VALID,103.939,VALID,0.105969,VALID,24.3158,VALID,78,VALID,0,
2010-12-15, 02:13:04,VALID,1006.36,VALID,0,VALID,103.939,VALID,0.105969,VALID,24.3158,VALID,12,VALID,0.514063,
2010-12-15, 02:14:04,VALID,1006.36,VALID,0,VALID,103.931,VALID,0.105969,VALID,24.3158,VALID,11,VALID,0,
2010-12-15, 02:15:04,VALID,1006.34,VALID,0,VALID,103.947,VALID,0,VALID,24.2749,VALID,11,VALID,0,
2010-12-15, 02:16:04,VALID,1006.34,VALID,0,VALID,103.947,VALID,0.105969,VALID,24.2963,VALID,11,VALID,0.00117188,
2010-12-15, 02:17:04,VALID,1006.35,VALID,0,VALID,103.939,VALID,0.105969,VALID,24.3158,VALID,11,VALID,0,
2010-12-15, 02:18:04,VALID,1006.35,VALID,0,VALID,103.954,VALID,0.105969,VALID,24.3158,VALID,11,VALID,0,
2010-12-15, 02:19:04,VALID,1006.33,VALID,0,VALID,103.954,VALID,0.105969,VALID,24.3158,VALID,11,VALID,0,
2010-12-15, 02:20:04,VALID,1006.32,VALID,0,VALID,103.947,VALID,0.105969,VALID,24.3158,VALID,11,VALID,0,
2010-12-15, 02:21:04,VALID,1006.31,VALID,0,VALID,103.962,VALID,0.105969,VALID,24.3158,VALID,11,VALID,0,
2010-12-15, 02:22:04,VALID,1006.29,VALID,0,VALID,103.947,VALID,0,VALID,24.3371,VALID,11,VALID,0.210156,
2010-12-15, 02:23:04,VALID,1006.27,VALID,0,VALID,103.954,VALID,0.105969,VALID,24.3352,VALID,11,VALID,0.129688,
2010-12-15, 02:24:04,VALID,1006.23,VALID,0,VALID,103.939,VALID,0.105969,VALID,24.3158,VALID,11,VALID,0,
2010-12-15, 02:25:04,VALID,1006.23,VALID,0,VALID,103.947,VALID,0,VALID,24.3176,VALID,11,VALID,0.157031,
2010-12-15, 02:26:04,VALID,1006.21,VALID,0,VALID,103.954,VALID,0,VALID,24.3176,VALID,11,VALID,0,
2010-12-15, 02:27:04,VALID,1006.22,VALID,0,VALID,103.939,VALID,0,VALID,24.3176,VALID,11,VALID,0,
2010-12-15, 02:28:04,VALID,1006.2,VALID,0,VALID,103.939,VALID,0,VALID,24.3176,VALID,11,VALID,0,
2010-12-15, 02:29:04,VALID,1006.23,VALID,0,VALID,103.931,VALID,0,VALID,24.2981,VALID,11,VALID,0,
2010-12-15, 02:30:04,VALID,1006.21,VALID,0,VALID,103.947,VALID,0,VALID,24.2981,VALID,11,VALID,0,
2010-12-15, 02:31:04,VALID,1006.2,VALID,0,VALID,103.924,VALID,0,VALID,24.2981,VALID,11,VALID,0,
2010-12-15, 02:32:04,VALID,1006.19,VALID,0,VALID,103.931,VALID,0,VALID,24.2786,VALID,11,VALID,0,
2010-12-15, 02:33:04,VALID,1006.19,VALID,0,VALID,103.947,VALID,0,VALID,24.2591,VALID,11,VALID,0,
2010-12-15, 02:34:04,VALID,1006.18,VALID,0,VALID,103.962,VALID,0,VALID,24.2591,VALID,11,VALID,0.0210938,
2010-12-15, 02:35:04,VALID,1006.18,VALID,0,VALID,103.954,VALID,0,VALID,24.2591,VALID,11,VALID,0,
2010-12-15, 02:36:04,VALID,1006.16,VALID,0,VALID,103.931,VALID,0,VALID,24.2396,VALID,11,VALID,0,
2010-12-15, 02:37:04,VALID,1006.15,VALID,0,VALID,103.954,VALID,0,VALID,24.2396,VALID,11,VALID,0,
2010-12-15, 02:38:04,VALID,1006.11,VALID,0,VALID,103.931,VALID,0,VALID,24.2415,VALID,11,VALID,0,
2010-12-15, 02:39:04,VALID,1006.11,VALID,0,VALID,103.954,VALID,0,VALID,24.2202,VALID,11,VALID,0,
2010-12-15, 02:40:04,VALID,1006.08,VALID,0,VALID,103.939,VALID,0,VALID,24.2202,VALID,11,VALID,0,
2010-12-15, 02:41:04,VALID,1006.09,VALID,0,VALID,103.939,VALID,0,VALID,24.2007,VALID,11,VALID,0,
2010-12-15, 02:42:04,VALID,1006.1,VALID,0,VALID,103.939,VALID,0,VALID,24.1793,VALID,11,VALID,0,
2010-12-15, 02:43:04,VALID,1006.05,VALID,0,VALID,103.97,VALID,0,VALID,24.1793,VALID,11,VALID,0,
2010-12-15, 02:44:04,VALID,1006.07,VALID,0,VALID,103.977,VALID,0,VALID,24.1812,VALID,11,VALID,0,
2010-12-15, 02:45:04,VALID,1006.07,VALID,0,VALID,103.97,VALID,0,VALID,24.1617,VALID,11,VALID,0,
2010-12-15, 02:46:04,VALID,1006.09,VALID,0,VALID,103.985,VALID,0,VALID,24.1617,VALID,11,VALID,0,
2010-12-15, 02:47:04,VALID,1006.09,VALID,0,VALID,103.977,VALID,0,VALID,24.1209,VALID,11,VALID,0,
2010-12-15, 02:48:04,VALID,1006.08,VALID,0,VALID,103.985,VALID,0,VALID,24.1422,VALID,11,VALID,0,
2010-12-15, 02:49:04,VALID,1006.12,VALID,0,VALID,104,VALID,0.105969,VALID,24.1227,VALID,11,VALID,0,
2010-12-15, 02:50:04,VALID,1006.11,VALID,0,VALID,104,VALID,0,VALID,24.1032,VALID,11,VALID,0,
2010-12-15, 02:51:04,VALID,1006.1,VALID,0,VALID,104,VALID,0,VALID,24.0819,VALID,11,VALID,0,
2010-12-15, 02:52:04,VALID,1006.08,VALID,0,VALID,103.992,VALID,0,VALID,24.0837,VALID,11,VALID,0,
2010-12-15, 02:53:04,VALID,1006.07,VALID,0,VALID,104,VALID,0,VALID,24.0643,VALID,11,VALID,0,
2010-12-15, 02:54:04,VALID,1006.07,VALID,0,VALID,104,VALID,0,VALID,24.0643,VALID,11,VALID,0,
2010-12-15, 02:55:04,VALID,1006.07,VALID,0,VALID,104,VALID,0,VALID,24.0643,VALID,11,VALID,0,
2010-12-15, 02:56:04,VALID,1006.11,VALID,0,VALID,104,VALID,0,VALID,24.0643,VALID,11,VALID,0,
2010-12-15, 02:57:04,VALID,1006.09,VALID,0,VALID,104,VALID,0,VALID,24.0448,VALID,11,VALID,0,
2010-12-15, 02:58:04,VALID,1006.07,VALID,0,VALID,104,VALID,0,VALID,24.0448,VALID,11,VALID,0,
2010-12-15, 02:59:04,VALID,1006.06,VALID,0,VALID,104,VALID,0,VALID,24.0253,VALID,11,VALID,0,
2010-12-15, 03:00:04,VALID,1006,VALID,0,VALID,104,VALID,0,VALID,24.0448,VALID,11,VALID,0,
2010-12-15, 03:01:04,VALID,1005.99,VALID,0,VALID,104,VALID,0,VALID,24.0643,VALID,11,VALID,0,
2010-12-15, 03:02:04,VALID,1006.01,VALID,0,VALID,104,VALID,0,VALID,24.0448,VALID,11,VALID,0,
2010-12-15, 03:03:04,VALID,1006.01,VALID,0,VALID,104,VALID,0,VALID,24.0253,VALID,11,VALID,0,
2010-12-15, 03:04:04,VALID,1006.01,VALID,0,VALID,104,VALID,0,VALID,24.0253,VALID,11,VALID,0,
2010-12-15, 03:05:04,VALID,1006.03,VALID,0,VALID,104,VALID,0,VALID,24.0058,VALID,11,VALID,0.111328,
2010-12-15, 03:06:04,VALID,1006.03,VALID,0,VALID,104,VALID,0,VALID,24.004,VALID,11,VALID,0.229297,
2010-12-15, 03:07:04,VALID,1005.99,VALID,0,VALID,104,VALID,0,VALID,24.0253,VALID,11,VALID,0,
2010-12-15, 03:08:04,VALID,1005.97,VALID,0,VALID,104,VALID,0,VALID,24.0253,VALID,11,VALID,0,
2010-12-15, 03:09:04,VALID,1005.99,VALID,0,VALID,104,VALID,0,VALID,24.0058,VALID,11,VALID,0,
2010-12-15, 03:10:04,VALID,1005.98,VALID,0,VALID,104,VALID,0,VALID,24.0058,VALID,11,VALID,0,
2010-12-15, 03:11:04,VALID,1006,VALID,0,VALID,104,VALID,0,VALID,23.9863,VALID,11,VALID,0,
2010-12-15, 03:12:04,VALID,1006.03,VALID,0,VALID,104,VALID,0,VALID,23.9863,VALID,11,VALID,0,
2010-12-15, 03:13:04,VALID,1006.01,VALID,0,VALID,104,VALID,0,VALID,23.9863,VALID,11,VALID,0,
2010-12-15, 03:14:04,VALID,1006,VALID,0,VALID,104,VALID,0,VALID,23.9863,VALID,11,VALID,0,
2010-12-15, 03:15:04,VALID,1006.04,VALID,0,VALID,104,VALID,0,VALID,23.965,VALID,11,VALID,0,
2010-12-15, 03:16:04,VALID,1006.02,VALID,0,VALID,104,VALID,0,VALID,23.9863,VALID,11,VALID,0,
2010-12-15, 03:17:04,VALID,1006.07,VALID,0,VALID,104,VALID,0,VALID,23.9668,VALID,11,VALID,0,
2010-12-15, 03:18:04,VALID,1006.05,VALID,0,VALID,104,VALID,0,VALID,23.9668,VALID,11,VALID,0,
2010-12-15, 03:19:04,VALID,1006.09,VALID,0,VALID,104,VALID,0,VALID,23.9668,VALID,11,VALID,0,
2010-12-15, 03:20:04,VALID,1006.05,VALID,0,VALID,104,VALID,0,VALID,23.9668,VALID,11,VALID,0,
2010-12-15, 03:21:04,VALID,1006.03,VALID,0,VALID,104,VALID,0,VALID,23.9473,VALID,11,VALID,0,
2010-12-15, 03:22:04,VALID,1006.01,VALID,0,VALID,104,VALID,0.105969,VALID,23.9278,VALID,11,VALID,0,
2010-12-15, 03:23:04,VALID,1006.04,VALID,0,VALID,104,VALID,0,VALID,23.9278,VALID,11,VALID,0,
2010-12-15, 03:24:04,VALID,1006.02,VALID,0,VALID,104,VALID,0,VALID,23.9084,VALID,11,VALID,0,
2010-12-15, 03:25:04,VALID,1006.03,VALID,0,VALID,104,VALID,0,VALID,23.8889,VALID,11,VALID,0,
2010-12-15, 03:26:04,VALID,1006.03,VALID,0,VALID,104,VALID,0,VALID,23.8694,VALID,11,VALID,0,
2010-12-15, 03:27:04,VALID,1006,VALID,0,VALID,104,VALID,0,VALID,23.8499,VALID,11,VALID,0,
2010-12-15, 03:28:04,VALID,1006.01,VALID,0,VALID,104,VALID,0,VALID,23.8481,VALID,11,VALID,0,
2010-12-15, 03:29:04,VALID,1005.99,VALID,0,VALID,104,VALID,0,VALID,23.8481,VALID,11,VALID,0,
2010-12-15, 03:30:04,VALID,1006.01,VALID,0,VALID,104,VALID,0,VALID,23.8499,VALID,11,VALID,0,
2010-12-15, 03:31:04,VALID,1006.03,VALID,0,VALID,104,VALID,0,VALID,23.8499,VALID,11,VALID,0,
2010-12-15, 03:32:04,VALID,1006.01,VALID,0,VALID,104,VALID,0,VALID,23.8499,VALID,11,VALID,0,
2010-12-15, 03:33:04,VALID,1006.03,VALID,0,VALID,104,VALID,0,VALID,23.8499,VALID,11,VALID,0,
2010-12-15, 03:34:04,VALID,1006.04,VALID,0,VALID,104,VALID,0,VALID,23.8499,VALID,11,VALID,0,
2010-12-15, 03:35:04,VALID,1006.06,VALID,0,VALID,104,VALID,0,VALID,23.8286,VALID,11,VALID,0,
2010-12-15, 03:36:04,VALID,1006.1,VALID,0,VALID,104,VALID,0,VALID,23.8499,VALID,11,VALID,0,
2010-12-15, 03:37:04,VALID,1006.11,VALID,0,VALID,104,VALID,0,VALID,23.8694,VALID,11,VALID,0,
2010-12-15, 03:38:04,VALID,1006.11,VALID,0,VALID,104,VALID,0,VALID,23.8889,VALID,11,VALID,0,
2010-12-15, 03:39:04,VALID,1006.12,VALID,0,VALID,104,VALID,0,VALID,23.8889,VALID,11,VALID,0,
2010-12-15, 03:40:04,VALID,1006.14,VALID,0,VALID,104,VALID,0,VALID,23.8889,VALID,11,VALID,0,
2010-12-15, 03:41:04,VALID,1006.11,VALID,0,VALID,104,VALID,0,VALID,23.8889,VALID,11,VALID,0,
2010-12-15, 03:42:04,VALID,1006.1,VALID,0,VALID,104,VALID,0,VALID,23.8889,VALID,11,VALID,0,
2010-12-15, 03:43:04,VALID,1006.1,VALID,0,VALID,104,VALID,0,VALID,23.8889,VALID,11,VALID,0,
2010-12-15, 03:44:04,VALID,1006.11,VALID,0,VALID,104,VALID,0,VALID,23.8889,VALID,11,VALID,0,
2010-12-15, 03:45:04,VALID,1006.1,VALID,0,VALID,104,VALID,0,VALID,23.8889,VALID,11,VALID,0,
2010-12-15, 03:46:04,VALID,1006.08,VALID,0,VALID,104,VALID,0,VALID,23.8481,VALID,11,VALID,0,
2010-12-15, 03:47:04,VALID,1006.04,VALID,0,VALID,104,VALID,0,VALID,23.8694,VALID,11,VALID,0,
2010-12-15, 03:48:04,VALID,1006.03,VALID,0,VALID,104,VALID,0,VALID,23.8712,VALID,11,VALID,0,
2010-12-15, 03:49:04,VALID,1006.03,VALID,0,VALID,104,VALID,0,VALID,23.8481,VALID,11,VALID,0,
2010-12-15, 03:50:04,VALID,1006.04,VALID,0,VALID,104,VALID,0,VALID,23.8499,VALID,11,VALID,0,
2010-12-15, 03:51:04,VALID,1006.04,VALID,0,VALID,104,VALID,0,VALID,23.8499,VALID,11,VALID,0,
2010-12-15, 03:52:04,VALID,1006.05,VALID,0,VALID,104,VALID,0.105969,VALID,23.8304,VALID,11,VALID,0.273828,
2010-12-15, 03:53:04,VALID,1006.05,VALID,0,VALID,104,VALID,0,VALID,23.8109,VALID,11,VALID,0.232031,
2010-12-15, 03:54:04,VALID,1006.1,VALID,0,VALID,104,VALID,0,VALID,23.8109,VALID,11,VALID,0.0585938,
2010-12-15, 03:55:04,VALID,1006.14,VALID,0,VALID,104,VALID,0,VALID,23.7914,VALID,11,VALID,0,
2010-12-15, 03:56:04,VALID,1006.15,VALID,0,VALID,104,VALID,0,VALID,23.7914,VALID,11,VALID,0,
2010-12-15, 03:57:04,VALID,1006.19,VALID,0,VALID,104,VALID,0,VALID,23.7914,VALID,11,VALID,0,
2010-12-15, 03:58:04,VALID,1006.24,VALID,0,VALID,104,VALID,0,VALID,23.7701,VALID,11,VALID,0,